Voltar ao catálogo

STARLINK-35742

AtivoComunicaçõesVLEO
NORAD 66276·PAYLOAD·🇺🇸 United States

Lançado Oct 31, 2025 de Vandenberg Space Force Base

Loading…

Próximas Passagens (próximas 24 horas)

TLE

AtualizadoSource: CelesTrak SupGP

Época: Sep 15, 2026, 03:25 UTC

1 66276C 25247M   26258.14284722  .00033770  00000+0  99776-3 0  2588
2 66276  53.1587  28.8640 0001104  92.2519   2.9287 15.34373571    18

Acompanhe STARLINK-35742 em tempo real com AllMySat

Download on the App Store